Location: Asheville, NC
(35.6000°N, 82.5500°W)
Time: 21:52:35
(UTC-04:00)

Oscar 11 - Visible Passes

Search period start: 25 April 2018 00:00
Search period end: 05 May 2018 00:00
Orbit: 615 x 625 km, 97.7° (Epoch: 25 April)

Date Brightness Start Highest point End Pass type
(mag) Time Alt. Az. Time Alt. Az. Time Alt. Az.
25 Apr 7.2 21:12:39 10° S 21:16:58 75° WSW 21:21:20 10° NNW visible
26 Apr 8.1 21:30:03 10° S 21:34:12 45° W 21:38:24 10° NNW visible
27 Apr 9.0 21:47:44 10° SSW 21:51:29 28° W 21:55:15 10° NW visible
28 Apr 9.6 22:05:49 10° SW 22:08:48 18° W 22:11:48 10° NW visible
29 Apr 7.3 20:45:34 10° SSE 20:49:46 51° ENE 20:54:00 10° N visible
29 Apr 10.0 22:24:49 10° WSW 22:26:10 11° W 22:27:30 10° WNW visible
30 Apr 7.0 21:02:36 10° SSE 21:06:57 84° ENE 21:11:19 10° N visible
01 May 7.6 21:19:53 10° S 21:24:09 60° W 21:28:28 10° NNW visible
02 May 8.5 21:37:24 10° SSW 21:41:24 36° W 21:45:27 10° NNW visible
03 May 9.3 21:55:14 10° SSW 21:58:43 23° W 22:02:11 10° NW visible
04 May 9.8 22:13:36 10° SW 22:16:02 15° W 22:18:30 10° WNW visible
